SCP
0 0 -0 -0 -0 -0 -0 -0 0 0 0 0 0 0 0 0 0 0 0 0 0 0 0 0 0 0 0 0 0 0 0 0 0 0 0 0 0 0 0 0 0 0 0
0 0 0 0 -0 0 -0 0 0 0 0 0 0 0 0 0 0 0 0 0 0 0 0 0 0 0 0 0 0 0 0 0 0 0 0 0 0 0 0 0 0 0 0
0 0 0 0 0 0 0 0 0 0 0 0 0 0 0 0 0 0 0 0 0 0 0 0 0 0 0 0 0 0 0 0 0 0 0 0 0 0 0 0 0 -0 -0
0 0 0 0 0 0 0 0 0 0 0 0 0 -0 0 0 0 0 0 0 0 0 0 0 0 0 0 0 0 0 0 0 0 0 0 0 0 0 0 0 0 -0 -0
0 0 0 0 0 0 0 0 0 0 0 0 0 0 0 0 0 0 0 0 0 0 0 0 0 0 0 0 0 0 0 0 0 0 0 0 0 0 0 0 0 0 0
0 0 0 0 0 0 0 0 0 0 0 0 0 0 0 0 0 0 0 0 0 0 0 0 0 0 0 -0 0 0 0 0 0 0 0 0 0 0 0 0 0 0 0
0 0 0 0 0 0 0 0 0 0 0 0 0 0 0 0 0 0 0 0 0 0 0 0 0 0 0 0 0 0 0 0 0 0 0 0 0 0 0 0 0 0 0
0 0 0 0 0 0 0 0 0 0 0 0 0 0 0 0 0 0 0 0 0 0 0 0 0 0 0 0 0 0 0 0 0 0 0 0 0 0 0 0 0 0 0
0 0 0 0 0 0 0 0 0 0 0 0 0 0 0 0 0 0 0 0 0 0 0 0 0 0 0 0 0 0 0 0 0 0 0 0 0 0 0 0 0 0 0
0 0 0 0 0 0 0 0 0 0 0 0 0 0 0 0 0 0 0 0 0 0 0 0 0 0 0 0 0 0 0 0 0 0 0 0 0 0 0 0 0 0 0
0 0 0 0 0 0 0 0 0 0 0 0 0 0 0 0 0 0 0 0 0 0 0 0 0 0 0 0 0 0 0 0 0 0 0 0 0 0 0 0 0 0 0
0 0 0 0 0 0 0 0 0 0 0 0 0 0 0 0 0 0 0 0 0 0 0 0 0 0 0 0 0 0 0 0 0 0 0 0 0 0 0 0 0 0 0
0 0 0 0 0 0 0 0 0 0 0 0 0 0 0 0 0 0 0 0 0 0 0 0 0 0 0 0 0 0 0 0 0 0 0 0 0 0 0 0 0 0 0
0 0 0 0 0 0 0 0 0 0 0 0 0 0 0 0 0 0 0 0 0 0 0 0 0 0 0 0 0 0 0 0 0 0 0 0 0 0 0 0 0 0 0
0 0 0 0 0 0 0 0 0 0 0 0 0 0 0 0 0 0 0 0 0 0 0 0 0 0 0 0 0 0 0 0 0 0 0 0 0 0 0 0 0 0 0
0 0 0 0 0 0 0 0 0 0 0 0 0 0 0 0 0 0 0 0 0 0 0 0 0 0 0 0 0 0 0 0 0 0 0 0 0 0 0 0 0 0 0
0 0 0 0 0 0 0 0 0 0 0 0 0 0 0 0 0 0 0 0 0 0 0 0 0 0 0 0 0 0 0 0 0 0 0 0 0 0 0 0 0 0 0
0 0 0 0 0 0 0 0 0 0 0 0 0 0 0 0 0 0 0 0 0 0 0 0 0 0 0 0 0 0 0 0 0 0 0 0 0 0 0 0 0 0 0
0 0 0 0 0 0 0 0 0 0 0 0 0 0 0 0 0 0 0 0 0 0 0 0 0 0 0 0 0 0 0 0 0 0 0 0 0 0 0 0 0 0 0
0 0 0 0 0 0 0 0 0 0 0 0 0 0 0 0 0 0 0 0 0 0 0 0 0 0 0 0 0 0 0 0 0 0 0 0 0 0 0 0 0 0 0
0 0 0 0 0 0 0 0 0 0 0 0 0 0 0 0 0 0 0 0 0 0 0 0 0 0 0 0 0 0 0 0 0 0 0 0 0 0 0 0 0 0 0
0 0 0 0 0 0 0 0 0 0 0 0 0 0 0 0 0 0 0 0 0 0 0 0 0 0 0 0 0 0 0 0 0 0 0 0 0 0 0 0 0 0 0
0 0 0 0 0 0 0 0 0 0 0 0 0 0 0 0 0 0 0 0 0 0 0 0 0 0 0 0 0 0 0 0 0 0 0 0 0 0 0 0 0 0 0
0 0 0 0 0 0 0 0 0 0 0 0 0 0 0 0 0 0 0 0 0 0 0 0 0 0 0 0 0 0 0 0 0 0 0 0 0 0 0 0 0 0 0
0 0 0 0 0 0 0 0 0 0 0 0 0 0 0 0 0 0 0 0 0 0 0 0 0 0 0 0 0 0 0 0 0 0 0 0 0 0 0 0 0 0 0
0 0 0 0 0 0 0 0 0 0 0 0 0 0 0 0 0 0 0 0 0 0 0 0 0 0 0 0 0 0 0 0 0 0 0 0 0 0 0 0 0 0 0
Wind_Speed_500mb
43 38 34 32 30 25 23 23 22 18 15 12 10 7 5 3 2 2 3 3 5 8 8 9 7 5 6 8 7 5 2 5 7 6 9 11 12 10 12 15 19 21 20
41 40 36 32 30 27 25 24 22 19 16 13 11 10 10 10 9 8 6 6 5 5 5 6 7 7 6 7 8 6 6 6 7 10 10 12 14 16 21 27 27 25 23
44 39 37 34 31 29 26 23 21 20 18 16 15 15 13 9 7 8 10 11 9 9 8 9 12 13 12 10 8 9 11 11 13 15 17 17 18 19 22 23 27 19 21
45 41 39 35 32 30 29 27 23 22 21 20 17 18 16 12 13 13 12 10 11 11 12 13 14 14 15 16 16 14 14 17 21 23 23 24 24 24 26 24 20 19 23
46 42 39 35 34 31 27 25 21 20 20 20 22 21 19 19 19 20 20 22 22 22 24 25 26 25 24 23 22 21 22 23 26 30 29 29 30 29 28 27 25 23 24
47 42 38 36 32 31 28 25 25 23 23 26 26 27 26 26 27 28 27 27 27 27 29 30 30 31 32 31 31 32 31 31 32 35 35 35 35 34 34 32 30 28 30
47 43 40 38 35 31 29 28 27 28 30 29 29 30 30 30 31 30 28 29 29 29 29 28 28 30 30 32 34 35 37 40 41 41 43 42 42 40 39 39 37 34 34
43 43 42 40 36 33 32 31 31 34 33 32 31 31 30 31 30 29 27 26 24 21 20 22 23 23 25 25 28 29 32 36 37 39 42 44 45 45 43 41 42 41 42
45 43 42 41 38 36 35 36 38 36 33 32 30 30 28 25 23 18 18 17 16 16 16 17 17 18 19 21 22 24 27 31 33 37 40 41 42 43 44 45 45 42 40
49 47 46 43 40 37 38 38 36 35 33 30 27 24 22 21 18 16 16 15 14 14 14 14 15 17 18 21 23 26 28 31 34 37 38 40 41 40 41 44 45 45 44
55 51 48 44 40 37 33 32 32 31 30 28 26 23 22 20 18 18 17 15 14 16 17 17 19 20 21 24 26 28 29 32 34 36 37 39 41 41 42 44 45 45 46
61 58 52 46 42 38 35 34 34 32 30 28 26 22 21 19 18 18 16 15 16 17 18 19 19 21 24 25 26 29 30 31 32 34 36 38 39 41 42 44 47 47 47
60 59 55 50 46 42 41 40 37 34 32 29 26 23 21 19 18 17 16 15 15 16 18 19 19 20 24 26 28 29 30 32 34 35 37 38 40 40 41 43 45 48 50
61 57 54 53 51 48 46 42 39 36 33 29 27 24 21 19 18 16 16 15 15 17 18 20 20 22 24 27 30 30 31 31 32 33 33 36 37 40 41 43 45 48 51
63 57 56 58 55 53 52 47 43 39 34 30 27 24 21 19 17 17 17 17 18 18 19 20 22 22 24 24 27 30 30 30 31 31 31 32 35 35 37 39 42 44 48
66 62 58 61 58 59 55 50 43 40 36 32 28 24 21 19 18 19 18 19 18 19 20 20 21 23 24 26 25 27 28 28 28 29 30 29 32 33 31 38 45 49 51
72 64 64 63 63 62 57 51 48 44 39 33 29 25 22 21 20 19 19 19 19 19 20 21 23 25 26 27 28 28 27 26 28 29 29 37 31 32 51 52 49 51 51
77 72 66 66 69 67 63 56 52 47 41 35 31 26 24 22 21 20 20 20 20 20 22 22 23 24 27 29 28 27 27 28 30 28 33 26 48 47 44 54 54 57 63
80 75 71 71 73 70 65 59 55 51 45 40 34 28 26 25 23 21 20 20 21 22 24 24 26 28 28 29 29 30 30 30 28 31 19 53 46 54 55 53 52 59 69
84 80 76 74 76 75 69 63 62 57 52 47 38 32 30 25 22 21 20 20 22 24 25 26 27 29 30 34 35 35 34 30 34 18 54 45 57 52 50 58 63 62 76
89 89 86 83 82 81 79 78 74 69 60 51 43 36 31 25 23 22 21 21 24 24 25 26 27 28 29 35 40 42 40 36 26 51 49 63 61 48 68 59 74 72 65
97 96 95 90 87 89 87 84 76 70 62 52 44 39 33 28 24 23 22 22 24 26 26 28 26 27 31 34 39 41 30 39 45 64 70 62 48 82 66 82 81 77 72
101 104 104 97 92 92 91 84 79 70 65 62 57 47 38 31 26 24 23 23 24 26 28 28 25 25 27 30 34 28 17 15 67 59 63 59 84 64 89 78 86 87 82
97 99 101 100 97 97 97 91 88 84 79 72 58 45 40 35 28 26 24 24 25 27 29 28 25 23 24 27 32 35 38 41 26 40 63 78 50 84 76 85 87 87 81
91 97 101 101 99 100 101 98 89 83 74 66 57 50 47 43 35 29 25 25 25 28 30 28 25 22 23 26 30 36 41 45 43 43 64 86 96 76 70 86 81 78 70
81 93 97 102 101 101 100 98 88 81 78 73 65 59 55 49 41 33 27 26 27 28 30 29 27 24 25 27 31 36 40 42 49 47 63 84 83 93 94 79 73 63 63
Wind_Direction_500mb
179 178 179 179 178 180 181 185 191 197 199 201 197 203 208 222 250 324 359 12 25 29 32 34 33 23 3 355 349 357 10 248 264 274 290 305 310 309 307 308 307 309 316
179 178 177 177 179 181 184 190 197 202 204 200 209 216 223 233 250 263 276 283 303 316 334 343 347 348 338 328 325 302 285 273 272 295 301 299 294 299 305 304 301 295 294
183 183 173 173 181 184 189 196 202 209 213 215 215 223 227 227 233 248 247 252 258 271 289 309 311 307 301 301 296 277 269 262 264 279 286 288 291 292 298 305 307 297 295
185 183 176 174 178 184 188 196 202 206 213 219 222 233 234 240 248 252 246 236 245 247 246 251 258 265 276 284 280 277 267 268 267 271 280 282 287 295 305 309 305 293 291
184 184 184 182 182 188 194 201 210 214 221 230 232 242 249 252 253 255 250 249 252 258 262 263 266 268 268 270 272 265 264 263 265 271 275 279 282 289 294 299 302 293 289
184 188 191 194 195 200 207 218 223 227 235 240 245 248 252 255 258 258 257 256 259 263 267 267 267 267 267 266 265 266 268 272 273 276 278 280 282 286 287 290 292 291 284
187 191 195 198 200 207 214 221 226 232 237 239 242 246 251 254 255 257 258 260 263 266 267 267 265 265 265 265 265 267 269 268 270 271 275 278 279 279 281 285 287 287 287
196 195 198 199 203 211 218 226 235 239 238 236 238 243 247 251 253 253 256 258 262 262 266 266 269 276 280 279 279 279 279 279 279 278 278 279 280 278 275 275 278 282 285
196 204 204 205 210 217 226 234 238 236 231 230 234 238 242 242 240 238 242 247 254 256 260 271 280 287 288 290 291 289 289 290 290 289 288 289 288 286 282 271 266 268 274
200 206 209 212 215 223 231 234 233 226 220 222 219 215 219 226 229 235 242 246 250 260 265 276 283 289 292 292 294 295 298 296 296 297 298 298 297 294 292 287 280 268 269
205 208 211 216 220 222 221 215 209 196 193 198 204 209 218 223 227 232 239 245 254 267 276 281 286 289 292 294 295 297 297 298 298 299 299 296 297 298 296 292 288 283 273
208 210 211 215 217 215 207 200 194 192 194 199 206 212 219 224 229 236 242 251 260 266 273 280 288 294 295 295 298 300 300 300 299 299 300 299 299 298 296 295 294 290 281
212 213 215 213 212 212 208 201 197 198 200 203 209 213 222 230 236 243 250 252 261 272 278 282 288 292 297 300 302 303 303 304 307 308 306 305 303 301 298 295 292 290 287
216 218 216 215 212 212 207 203 201 203 206 208 210 216 219 226 237 245 251 259 266 269 276 285 291 297 299 305 307 308 310 312 312 310 311 307 305 304 302 299 296 291 287
217 218 218 217 214 213 208 204 204 206 208 210 211 217 220 224 231 241 251 258 263 271 280 289 297 300 303 305 308 310 314 315 313 314 313 312 311 310 308 306 303 298 293
218 219 217 217 216 213 209 207 207 209 208 211 212 216 223 227 228 236 247 258 269 279 287 293 297 301 306 308 310 312 314 316 316 315 316 316 315 313 318 317 309 303 300
221 219 218 216 215 214 211 208 209 209 210 208 215 219 222 226 233 241 253 262 272 283 294 299 303 308 311 314 317 317 317 318 318 323 322 321 326 323 315 311 311 305 298
223 222 218 217 216 213 210 209 210 210 208 210 215 219 222 229 237 246 258 270 282 291 295 302 306 311 313 316 315 316 319 324 324 321 323 336 323 321 318 311 312 306 302
228 225 220 219 217 214 210 210 211 212 209 210 215 220 224 232 238 252 262 275 288 294 297 305 311 314 314 314 318 322 323 326 321 321 320 329 326 323 318 320 319 312 307
229 228 224 223 218 215 211 210 212 213 210 212 214 220 227 235 246 256 264 279 289 294 301 309 311 312 316 321 324 324 326 325 325 327 329 329 326 320 319 319 318 318 313
229 225 223 221 220 213 209 210 211 213 210 213 214 219 226 235 247 254 263 275 286 292 298 301 305 313 320 323 327 325 333 331 330 331 332 330 329 329 322 326 319 322 316
231 225 221 220 220 216 214 214 215 213 212 214 218 220 223 233 246 252 261 271 282 288 294 296 307 315 321 332 340 343 340 336 326 332 333 332 333 326 327 324 324 325 319
227 225 221 219 219 217 216 214 216 214 216 214 214 218 222 230 242 250 256 265 276 284 289 294 304 311 318 329 339 350 340 313 327 329 330 330 326 322 324 323 327 326 326
226 225 222 220 219 217 216 215 217 216 214 216 217 221 222 228 236 245 253 261 272 279 283 290 298 302 310 321 330 336 333 328 326 320 326 320 325 318 324 325 327 330 331
225 222 221 220 219 218 215 216 218 219 221 222 219 221 223 227 232 241 251 259 267 275 281 286 290 292 300 313 324 327 327 327 327 319 314 320 321 320 321 327 333 335 336
227 222 220 218 218 217 215 216 218 221 221 220 219 221 222 227 231 241 252 259 264 271 276 280 283 283 295 308 318 322 323 322 322 314 307 315 317 322 326 331 340 342 340
Wind_Speed_850mb
43 38 34 32 30 25 23 23 22 18 15 12 10 7 5 3 2 2 3 3 5 8 8 9 7 5 6 8 7 5 2 5 7 6 9 11 12 10 12 15 19 21 20
41 40 36 32 30 27 25 24 22 19 16 13 11 10 10 10 9 8 6 6 5 5 5 6 7 7 6 7 8 6 6 6 7 10 10 12 14 16 21 27 27 25 23
44 39 37 34 31 29 26 23 21 20 18 16 15 15 13 9 7 8 10 11 9 9 8 9 12 13 12 10 8 9 11 11 13 15 17 17 18 19 22 23 27 19 21
45 41 39 35 32 30 29 27 23 22 21 20 17 18 16 12 13 13 12 10 11 11 12 13 14 14 15 16 16 14 14 17 21 23 23 24 24 24 26 24 20 19 23
46 42 39 35 34 31 27 25 21 20 20 20 22 21 19 19 19 20 20 22 22 22 24 25 26 25 24 23 22 21 22 23 26 30 29 29 30 29 28 27 25 23 24
47 42 38 36 32 31 28 25 25 23 23 26 26 27 26 26 27 28 27 27 27 27 29 30 30 31 32 31 31 32 31 31 32 35 35 35 35 34 34 32 30 28 30
47 43 40 38 35 31 29 28 27 28 30 29 29 30 30 30 31 30 28 29 29 29 29 28 28 30 30 32 34 35 37 40 41 41 43 42 42 40 39 39 37 34 34
43 43 42 40 36 33 32 31 31 34 33 32 31 31 30 31 30 29 27 26 24 21 20 22 23 23 25 25 28 29 32 36 37 39 42 44 45 45 43 41 42 41 42
45 43 42 41 38 36 35 36 38 36 33 32 30 30 28 25 23 18 18 17 16 16 16 17 17 18 19 21 22 24 27 31 33 37 40 41 42 43 44 45 45 42 40
49 47 46 43 40 37 38 38 36 35 33 30 27 24 22 21 18 16 16 15 14 14 14 14 15 17 18 21 23 26 28 31 34 37 38 40 41 40 41 44 45 45 44
55 51 48 44 40 37 33 32 32 31 30 28 26 23 22 20 18 18 17 15 14 16 17 17 19 20 21 24 26 28 29 32 34 36 37 39 41 41 42 44 45 45 46
61 58 52 46 42 38 35 34 34 32 30 28 26 22 21 19 18 18 16 15 16 17 18 19 19 21 24 25 26 29 30 31 32 34 36 38 39 41 42 44 47 47 47
60 59 55 50 46 42 41 40 37 34 32 29 26 23 21 19 18 17 16 15 15 16 18 19 19 20 24 26 28 29 30 32 34 35 37 38 40 40 41 43 45 48 50
61 57 54 53 51 48 46 42 39 36 33 29 27 24 21 19 18 16 16 15 15 17 18 20 20 22 24 27 30 30 31 31 32 33 33 36 37 40 41 43 45 48 51
63 57 56 58 55 53 52 47 43 39 34 30 27 24 21 19 17 17 17 17 18 18 19 20 22 22 24 24 27 30 30 30 31 31 31 32 35 35 37 39 42 44 48
66 62 58 61 58 59 55 50 43 40 36 32 28 24 21 19 18 19 18 19 18 19 20 20 21 23 24 26 25 27 28 28 28 29 30 29 32 33 31 38 45 49 51
72 64 64 63 63 62 57 51 48 44 39 33 29 25 22 21 20 19 19 19 19 19 20 21 23 25 26 27 28 28 27 26 28 29 29 37 31 32 51 52 49 51 51
77 72 66 66 69 67 63 56 52 47 41 35 31 26 24 22 21 20 20 20 20 20 22 22 23 24 27 29 28 27 27 28 30 28 33 26 48 47 44 54 54 57 63
80 75 71 71 73 70 65 59 55 51 45 40 34 28 26 25 23 21 20 20 21 22 24 24 26 28 28 29 29 30 30 30 28 31 19 53 46 54 55 53 52 59 69
84 80 76 74 76 75 69 63 62 57 52 47 38 32 30 25 22 21 20 20 22 24 25 26 27 29 30 34 35 35 34 30 34 18 54 45 57 52 50 58 63 62 76
89 89 86 83 82 81 79 78 74 69 60 51 43 36 31 25 23 22 21 21 24 24 25 26 27 28 29 35 40 42 40 36 26 51 49 63 61 48 68 59 74 72 65
97 96 95 90 87 89 87 84 76 70 62 52 44 39 33 28 24 23 22 22 24 26 26 28 26 27 31 34 39 41 30 39 45 64 70 62 48 82 66 82 81 77 72
101 104 104 97 92 92 91 84 79 70 65 62 57 47 38 31 26 24 23 23 24 26 28 28 25 25 27 30 34 28 17 15 67 59 63 59 84 64 89 78 86 87 82
97 99 101 100 97 97 97 91 88 84 79 72 58 45 40 35 28 26 24 24 25 27 29 28 25 23 24 27 32 35 38 41 26 40 63 78 50 84 76 85 87 87 81
91 97 101 101 99 100 101 98 89 83 74 66 57 50 47 43 35 29 25 25 25 28 30 28 25 22 23 26 30 36 41 45 43 43 64 86 96 76 70 86 81 78 70
81 93 97 102 101 101 100 98 88 81 78 73 65 59 55 49 41 33 27 26 27 28 30 29 27 24 25 27 31 36 40 42 49 47 63 84 83 93 94 79 73 63 63
Wind_Direction_850mb
179 178 179 179 178 180 181 185 191 197 199 201 197 203 208 222 250 324 359 12 25 29 32 34 33 23 3 355 349 357 10 248 264 274 290 305 310 309 307 308 307 309 316
179 178 177 177 179 181 184 190 197 202 204 200 209 216 223 233 250 263 276 283 303 316 334 343 347 348 338 328 325 302 285 273 272 295 301 299 294 299 305 304 301 295 294
183 183 173 173 181 184 189 196 202 209 213 215 215 223 227 227 233 248 247 252 258 271 289 309 311 307 301 301 296 277 269 262 264 279 286 288 291 292 298 305 307 297 295
185 183 176 174 178 184 188 196 202 206 213 219 222 233 234 240 248 252 246 236 245 247 246 251 258 265 276 284 280 277 267 268 267 271 280 282 287 295 305 309 305 293 291
184 184 184 182 182 188 194 201 210 214 221 230 232 242 249 252 253 255 250 249 252 258 262 263 266 268 268 270 272 265 264 263 265 271 275 279 282 289 294 299 302 293 289
184 188 191 194 195 200 207 218 223 227 235 240 245 248 252 255 258 258 257 256 259 263 267 267 267 267 267 266 265 266 268 272 273 276 278 280 282 286 287 290 292 291 284
187 191 195 198 200 207 214 221 226 232 237 239 242 246 251 254 255 257 258 260 263 266 267 267 265 265 265 265 265 267 269 268 270 271 275 278 279 279 281 285 287 287 287
196 195 198 199 203 211 218 226 235 239 238 236 238 243 247 251 253 253 256 258 262 262 266 266 269 276 280 279 279 279 279 279 279 278 278 279 280 278 275 275 278 282 285
196 204 204 205 210 217 226 234 238 236 231 230 234 238 242 242 240 238 242 247 254 256 260 271 280 287 288 290 291 289 289 290 290 289 288 289 288 286 282 271 266 268 274
200 206 209 212 215 223 231 234 233 226 220 222 219 215 219 226 229 235 242 246 250 260 265 276 283 289 292 292 294 295 298 296 296 297 298 298 297 294 292 287 280 268 269
205 208 211 216 220 222 221 215 209 196 193 198 204 209 218 223 227 232 239 245 254 267 276 281 286 289 292 294 295 297 297 298 298 299 299 296 297 298 296 292 288 283 273
208 210 211 215 217 215 207 200 194 192 194 199 206 212 219 224 229 236 242 251 260 266 273 280 288 294 295 295 298 300 300 300 299 299 300 299 299 298 296 295 294 290 281
212 213 215 213 212 212 208 201 197 198 200 203 209 213 222 230 236 243 250 252 261 272 278 282 288 292 297 300 302 303 303 304 307 308 306 305 303 301 298 295 292 290 287
216 218 216 215 212 212 207 203 201 203 206 208 210 216 219 226 237 245 251 259 266 269 276 285 291 297 299 305 307 308 310 312 312 310 311 307 305 304 302 299 296 291 287
217 218 218 217 214 213 208 204 204 206 208 210 211 217 220 224 231 241 251 258 263 271 280 289 297 300 303 305 308 310 314 315 313 314 313 312 311 310 308 306 303 298 293
218 219 217 217 216 213 209 207 207 209 208 211 212 216 223 227 228 236 247 258 269 279 287 293 297 301 306 308 310 312 314 316 316 315 316 316 315 313 318 317 309 303 300
221 219 218 216 215 214 211 208 209 209 210 208 215 219 222 226 233 241 253 262 272 283 294 299 303 308 311 314 317 317 317 318 318 323 322 321 326 323 315 311 311 305 298
223 222 218 217 216 213 210 209 210 210 208 210 215 219 222 229 237 246 258 270 282 291 295 302 306 311 313 316 315 316 319 324 324 321 323 336 323 321 318 311 312 306 302
228 225 220 219 217 214 210 210 211 212 209 210 215 220 224 232 238 252 262 275 288 294 297 305 311 314 314 314 318 322 323 326 321 321 320 329 326 323 318 320 319 312 307
229 228 224 223 218 215 211 210 212 213 210 212 214 220 227 235 246 256 264 279 289 294 301 309 311 312 316 321 324 324 326 325 325 327 329 329 326 320 319 319 318 318 313
229 225 223 221 220 213 209 210 211 213 210 213 214 219 226 235 247 254 263 275 286 292 298 301 305 313 320 323 327 325 333 331 330 331 332 330 329 329 322 326 319 322 316
231 225 221 220 220 216 214 214 215 213 212 214 218 220 223 233 246 252 261 271 282 288 294 296 307 315 321 332 340 343 340 336 326 332 333 332 333 326 327 324 324 325 319
227 225 221 219 219 217 216 214 216 214 216 214 214 218 222 230 242 250 256 265 276 284 289 294 304 311 318 329 339 350 340 313 327 329 330 330 326 322 324 323 327 326 326
226 225 222 220 219 217 216 215 217 216 214 216 217 221 222 228 236 245 253 261 272 279 283 290 298 302 310 321 330 336 333 328 326 320 326 320 325 318 324 325 327 330 331
225 222 221 220 219 218 215 216 218 219 221 222 219 221 223 227 232 241 251 259 267 275 281 286 290 292 300 313 324 327 327 327 327 319 314 320 321 320 321 327 333 335 336
227 222 220 218 218 217 215 216 218 221 221 220 219 221 222 227 231 241 252 259 264 271 276 280 283 283 295 308 318 322 323 322 322 314 307 315 317 322 326 331 340 342 340